This demonstration page uses our WeatherBlox Daily Observations layout. Learn more.

Left ArrowRight Arrow

Hourly Observations for February 18, 2022

Temp ( °F °C ) Dew Point ( °F °C ) Humidity (%) Winds ( mph kmh ) Pressure ( in mb ) Visibility ( mi km ) Precip ( " mm )
12:56 am 00:56 Clear 28 -2.2 9 -12.8 44 44 SW 17 28 30.16 1021 10 16 0.00 0.00
1:56 am 01:56 Clear 29 -1.7 14 -10 54 54 SW 16 26 30.14 1021 10 16 0.00 0.00
2:56 am 02:56 Mostly Clear 29 -1.7 16 -8.9 58 58 SW 15 24 30.11 1020 10 16 0.00 0.00
3:56 am 03:56 Mostly Clear 29 -1.7 18 -7.8 63 63 WSW 15 24 30.08 1019 10 16 0.00 0.00
4:56 am 04:56 Clear 27 -2.8 17 -8.3 66 66 WSW 14 22 30.08 1019 10 16 0.00 0.00
5:56 am 05:56 Clear 27 -2.8 17 -8.3 66 66 WSW 13 20 30.08 1019 10 16 0.00 0.00
6:56 am 06:56 Clear 27 -2.8 18 -7.8 69 69 WSW 9 15 30.11 1020 10 16 0.00 0.00
7:56 am 07:56 Sunny 27 -2.8 17 -8.3 66 66 SW 6 9 30.13 1020 10 16 0.00 0.00
8:56 am 08:56 Sunny 34 1.1 19 -7.2 54 54 W 15 24 30.13 1020 10 16 0.00 0.00
9:56 am 09:56 Sunny 40 4.4 21 -6.1 47 47 W 9 15 30.13 1020 10 16 0.00 0.00
10:56 am 10:56 Sunny 48 8.9 25 -3.9 41 41 WNW 16 26 30.11 1020 10 16 0.00 0.00
11:56 am 11:56 Sunny 52 11.1 25 -3.9 35 35 WNW 20 31 30.09 1019 10 16 0.00 0.00
12:56 pm 12:56 Sunny 55 12.8 24 -4.4 30 30 WNW 15 24 30.06 1018 10 16 0.00 0.00
1:56 pm 13:56 Sunny 57 13.9 22 -5.6 26 26 WNW 17 28 30.04 1017 10 16 0.00 0.00
2:56 pm 14:56 Sunny 56 13.3 19 -7.2 24 24 WNW 22 35 30.02 1017 10 16 0.00 0.00
3:56 pm 15:56 Partly Cloudy 58 14.4 18 -7.8 21 21 NW 25 41 30.02 1017 10 16 0.00 0.00
4:56 pm 16:56 Mostly Sunny 56 13.3 20 -6.7 24 24 NW 20 31 30.04 1017 10 16 0.00 0.00
5:56 pm 17:56 Mostly Sunny 53 11.7 20 -6.7 27 27 NW 17 28 30.08 1019 10 16 0.00 0.00
6:56 pm 18:56 Clear 50 10 21 -6.1 32 32 NW 12 19 30.12 1020 10 16 0.00 0.00
7:56 pm 19:56 Partly Cloudy 43 6.1 27 -2.8 53 53 NNE 22 35 30.20 1023 10 16 0.00 0.00
8:56 pm 20:56 Clear 38 3.3 25 -3.9 60 60 N 17 28 30.24 1024 10 16 0.00 0.00
9:56 pm 21:56 Clear 34 1.1 25 -3.9 70 70 N 14 22 30.29 1026 10 16 0.00 0.00
10:56 pm 22:56 Clear 28 -2.2 20 -6.7 72 72 NNE 18 30 30.35 1028 10 16 0.00 0.00
11:56 pm 23:56 Mostly Cloudy 25 -3.9 17 -8.3 72 72 N 12 19 30.36 1028 10 16 0.00 0.00

Powered by AerisWeather